User: anonymous   Login
Location: Unspecified
(0.0000°N, 0.0000°E)
Time: 01:11:17
(UTC+00:00)
Language:

TBA - TO BE ASSIGNED - Orbit

View from above orbital plane
View from above orbital plane
View from above satellite
View from above satellite

Ground track
Ground track

The orbit is defined by the following mean orbital elements,

1 67520U          26145.57764847 +.00000000 +00000-0 +47614-3 0 00004
2 67520  43.0017 239.9312 0001054 270.5575  89.5156 15.27586238    08
Epoch (UTC): 25 May 2026 13:51:48
Eccentricity: 0.0001054
inclination: 43.0017°
perigee height: 482 km
apogee height: 484 km
right ascension of ascending node: 239.9312°
argument of perigee: 270.5575°
revolutions per day: 15.27586238
mean anomaly at epoch: 89.5156°

The dashed part of the orbit path shows where the satellite is in the earth's shadow,  

DLR